Time,TemperatureF,DewpointF,PressureIn,WindDirection,WindDirectionDegrees,WindSpeedMPH,WindSpeedGustMPH,Humidity,HourlyPrecipIn,Conditions,Clouds,dailyrainin,SolarRadiationWatts/m^2,SoftwareType,DateUTC
2013-02-09 00:02:00,36.2,33.3,29.85,SE,126,0.0,0.0,89,0.00,,,0.00,0,Wunderground v.1.15,2013-02-09 08:02:00,
2013-02-09 00:12:00,35.9,33.0,29.85,SE,126,0.0,0.0,89,0.00,,,0.00,0,Wunderground v.1.15,2013-02-09 08:12:00,
2013-02-09 00:22:00,35.9,33.0,29.85,SE,126,0.0,0.0,89,0.00,,,0.00,0,Wunderground v.1.15,2013-02-09 08:22:00,
2013-02-09 00:32:00,35.6,32.7,29.85,SE,126,0.0,0.0,89,0.00,,,0.00,0,Wunderground v.1.15,2013-02-09 08:32:00,
2013-02-09 00:42:00,35.6,32.7,29.85,SE,126,0.0,0.0,89,0.00,,,0.00,0,Wunderground v.1.15,2013-02-09 08:42:00,
2013-02-09 00:53:00,35.3,32.4,29.85,SE,126,0.0,0.0,89,0.00,,,0.00,0,Wunderground v.1.15,2013-02-09 08:53:00,
2013-02-09 01:02:00,35.2,32.3,29.86,SE,126,0.0,0.0,89,0.00,,,0.00,0,Wunderground v.1.15,2013-02-09 09:02:00,
2013-02-09 01:12:00,35.2,32.3,29.86,SE,126,0.0,0.0,89,0.00,,,0.00,0,Wunderground v.1.15,2013-02-09 09:12:00,
2013-02-09 01:22:00,35.0,32.1,29.86,SE,126,0.0,0.0,89,0.00,,,0.00,0,Wunderground v.1.15,2013-02-09 09:22:00,
2013-02-09 01:32:00,35.0,32.1,29.86,SE,126,0.0,0.0,89,0.00,,,0.00,0,Wunderground v.1.15,2013-02-09 09:32:00,
2013-02-09 01:42:00,35.0,32.4,29.86,SE,126,0.0,0.0,90,0.00,,,0.00,0,Wunderground v.1.15,2013-02-09 09:42:00,
2013-02-09 01:52:00,34.9,32.0,29.86,SE,126,0.0,0.0,89,0.00,,,0.00,0,Wunderground v.1.15,2013-02-09 09:52:00,
2013-02-09 02:03:00,34.7,31.8,29.86,SE,126,0.0,0.0,89,0.00,,,0.00,0,Wunderground v.1.15,2013-02-09 10:03:00,
2013-02-09 02:12:00,34.6,31.7,29.86,SE,126,0.0,0.0,89,0.00,,,0.00,0,Wunderground v.1.15,2013-02-09 10:12:00,
2013-02-09 02:22:00,34.6,31.7,29.86,SE,126,0.0,0.0,89,0.00,,,0.00,0,Wunderground v.1.15,2013-02-09 10:22:00,
2013-02-09 02:32:00,34.4,31.5,29.87,SE,126,0.0,0.0,89,0.00,,,0.00,0,Wunderground v.1.15,2013-02-09 10:32:00,
2013-02-09 02:42:00,34.6,31.7,29.87,SE,126,0.0,0.0,89,0.00,,,0.00,0,Wunderground v.1.15,2013-02-09 10:42:00,
2013-02-09 02:52:00,34.6,31.4,29.86,SE,126,0.0,0.0,88,0.00,,,0.00,0,Wunderground v.1.15,2013-02-09 10:52:00,
2013-02-09 03:02:00,34.6,31.1,29.86,SE,126,0.0,0.0,87,0.00,,,0.00,0,Wunderground v.1.15,2013-02-09 11:02:00,
2013-02-09 03:12:00,34.7,30.9,29.86,SE,126,0.0,0.0,86,0.00,,,0.00,0,Wunderground v.1.15,2013-02-09 11:12:00,
2013-02-09 03:22:00,34.7,30.9,29.86,SE,126,0.0,0.0,86,0.00,,,0.00,0,Wunderground v.1.15,2013-02-09 11:22:00,
2013-02-09 03:32:00,34.7,30.7,29.86,SE,126,0.0,0.0,85,0.00,,,0.00,0,Wunderground v.1.15,2013-02-09 11:32:00,
2013-02-09 03:42:00,34.7,30.7,29.86,SE,126,0.0,0.0,85,0.00,,,0.00,0,Wunderground v.1.15,2013-02-09 11:42:00,
2013-02-09 03:52:00,34.7,30.7,29.86,SE,126,0.0,0.0,85,0.00,,,0.00,0,Wunderground v.1.15,2013-02-09 11:52:00,
2013-02-09 04:03:00,34.6,30.6,29.87,SE,126,0.0,0.0,85,0.00,,,0.00,0,Wunderground v.1.15,2013-02-09 12:03:00,
2013-02-09 04:12:00,34.6,30.6,29.87,SE,126,0.0,0.0,85,0.00,,,0.00,0,Wunderground v.1.15,2013-02-09 12:12:00,
2013-02-09 04:22:00,34.6,30.6,29.87,SE,126,0.0,0.0,85,0.00,,,0.00,0,Wunderground v.1.15,2013-02-09 12:22:00,
2013-02-09 04:32:00,34.6,30.6,29.87,SE,126,0.0,0.0,85,0.00,,,0.00,0,Wunderground v.1.15,2013-02-09 12:32:00,
2013-02-09 04:42:00,34.6,30.3,29.87,SE,126,0.0,0.0,84,0.00,,,0.00,0,Wunderground v.1.15,2013-02-09 12:42:00,
2013-02-09 04:52:00,34.6,30.0,29.88,SE,126,0.0,0.0,83,0.00,,,0.00,0,Wunderground v.1.15,2013-02-09 12:52:00,
2013-02-09 05:02:00,34.6,30.0,29.88,SE,126,0.0,0.0,83,0.00,,,0.00,0,Wunderground v.1.15,2013-02-09 13:02:00,
2013-02-09 05:12:00,34.6,30.0,29.88,SE,126,0.0,0.0,83,0.00,,,0.00,0,Wunderground v.1.15,2013-02-09 13:12:00,
2013-02-09 05:23:00,34.6,29.7,29.88,SE,126,0.0,0.0,82,0.00,,,0.00,0,Wunderground v.1.15,2013-02-09 13:23:00,
2013-02-09 05:32:00,34.7,29.5,29.88,SE,126,0.0,0.0,81,0.00,,,0.00,0,Wunderground v.1.15,2013-02-09 13:32:00,
2013-02-09 05:43:00,34.9,29.4,29.88,SE,126,0.0,0.0,80,0.00,,,0.00,0,Wunderground v.1.15,2013-02-09 13:43:00,
2013-02-09 05:53:00,34.9,29.7,29.88,SE,126,0.0,0.0,81,0.00,,,0.00,0,Wunderground v.1.15,2013-02-09 13:53:00,
2013-02-09 06:02:00,34.9,29.4,29.88,SE,126,0.0,0.0,80,0.00,,,0.00,0,Wunderground v.1.15,2013-02-09 14:02:00,
2013-02-09 06:12:00,34.9,29.0,29.88,SE,126,0.0,0.0,79,0.00,,,0.00,0,Wunderground v.1.15,2013-02-09 14:12:00,
2013-02-09 06:22:00,34.9,28.7,29.88,SE,126,0.0,0.0,78,0.00,,,0.00,0,Wunderground v.1.15,2013-02-09 14:22:00,
2013-02-09 06:32:00,35.0,28.8,29.89,SE,126,0.0,0.0,78,0.00,,,0.00,0,Wunderground v.1.15,2013-02-09 14:32:00,
2013-02-09 06:42:00,35.0,28.8,29.89,SE,126,0.0,0.0,78,0.00,,,0.00,0,Wunderground v.1.15,2013-02-09 14:42:00,
2013-02-09 06:52:00,35.0,28.8,29.89,SE,126,0.0,0.0,78,0.00,,,0.00,0,Wunderground v.1.15,2013-02-09 14:52:00,
2013-02-09 07:02:00,35.0,29.1,29.90,SE,126,0.0,0.0,79,0.00,,,0.00,0,Wunderground v.1.15,2013-02-09 15:02:00,
2013-02-09 07:17:00,34.9,29.4,29.90,SE,126,0.0,0.0,80,0.00,,,0.00,0,Wunderground v.1.15,2013-02-09 15:17:00,
2013-02-09 07:22:00,34.9,29.4,29.90,SE,126,0.0,0.0,80,0.00,,,0.00,0,Wunderground v.1.15,2013-02-09 15:22:00,
2013-02-09 07:32:00,34.9,28.7,29.91,SE,126,0.0,0.0,78,0.00,,,0.00,0,Wunderground v.1.15,2013-02-09 15:32:00,
2013-02-09 07:42:00,34.9,29.4,29.91,SE,126,0.0,0.0,80,0.00,,,0.00,0,Wunderground v.1.15,2013-02-09 15:42:00,
2013-02-09 07:52:00,35.0,29.8,29.91,SE,126,0.0,0.0,81,0.00,,,0.00,26,Wunderground v.1.15,2013-02-09 15:52:00,
2013-02-09 07:57:00,35.2,30.0,29.91,SE,126,0.0,0.0,81,0.00,,,0.00,30,Wunderground v.1.15,2013-02-09 15:57:00,
2013-02-09 08:02:00,35.3,30.4,29.91,SE,126,0.0,0.0,82,0.00,,,0.00,55,Wunderground v.1.15,2013-02-09 16:02:00,
2013-02-09 08:12:00,35.8,31.1,29.91,SE,126,0.0,0.0,83,0.00,,,0.00,33,Wunderground v.1.15,2013-02-09 16:12:00,
2013-02-09 08:22:00,36.5,31.8,29.91,SE,126,0.0,0.0,83,0.00,,,0.00,197,Wunderground v.1.15,2013-02-09 16:22:00,
2013-02-09 08:32:00,37.5,32.2,29.91,SE,126,0.0,0.0,81,0.00,,,0.00,44,Wunderground v.1.15,2013-02-09 16:32:00,
2013-02-09 08:42:00,37.5,31.9,29.91,SE,126,0.0,0.0,80,0.00,,,0.00,49,Wunderground v.1.15,2013-02-09 16:42:00,
2013-02-09 08:52:00,37.5,31.9,29.92,SE,126,0.0,0.0,80,0.00,,,0.00,42,Wunderground v.1.15,2013-02-09 16:52:00,
2013-02-09 09:02:00,37.8,32.5,29.92,SE,126,0.0,0.0,81,0.00,,,0.00,39,Wunderground v.1.15,2013-02-09 17:02:00,
2013-02-09 09:12:00,37.9,32.9,29.92,SE,126,0.0,0.0,82,0.00,,,0.00,39,Wunderground v.1.15,2013-02-09 17:12:00,
2013-02-09 09:23:00,38.3,33.3,29.92,SE,126,0.0,0.0,82,0.00,,,0.00,40,Wunderground v.1.15,2013-02-09 17:23:00,
2013-02-09 09:32:00,38.6,33.9,29.92,SE,126,0.0,0.0,83,0.00,,,0.00,42,Wunderground v.1.15,2013-02-09 17:32:00,
2013-02-09 09:42:00,39.2,34.5,29.92,SE,126,0.0,0.0,83,0.00,,,0.00,42,Wunderground v.1.15,2013-02-09 17:42:00,
2013-02-09 09:52:00,40.1,35.4,29.92,SE,126,0.0,0.0,83,0.00,,,0.00,46,Wunderground v.1.15,2013-02-09 17:52:00,
2013-02-09 10:02:00,40.8,35.7,29.92,SE,126,0.0,0.0,82,0.00,,,0.00,48,Wunderground v.1.15,2013-02-09 18:02:00,
2013-02-09 10:12:00,42.3,36.6,29.92,SE,126,0.0,0.0,80,0.00,,,0.00,81,Wunderground v.1.15,2013-02-09 18:12:00,
2013-02-09 10:22:00,43.9,34.4,29.92,SE,126,0.0,0.0,69,0.00,,,0.00,301,Wunderground v.1.15,2013-02-09 18:22:00,
2013-02-09 10:32:00,45.2,34.1,29.92,SE,126,0.0,0.0,65,0.00,,,0.00,81,Wunderground v.1.15,2013-02-09 18:32:00,
2013-02-09 10:42:00,46.0,32.9,29.92,NNW,328,0.0,0.0,60,0.00,,,0.00,72,Wunderground v.1.15,2013-02-09 18:42:00,
2013-02-09 10:52:00,46.8,33.2,29.92,NW,319,0.0,0.0,59,0.00,,,0.00,208,Wunderground v.1.15,2013-02-09 18:52:00,
2013-02-09 11:02:00,47.9,32.5,29.92,NNW,336,0.0,0.0,55,0.00,,,0.00,63,Wunderground v.1.15,2013-02-09 19:02:00,
2013-02-09 11:12:00,49.4,33.9,29.92,NNW,336,0.0,0.0,55,0.00,,,0.00,600,Wunderground v.1.15,2013-02-09 19:12:00,
2013-02-09 11:23:00,50.8,30.7,29.92,ESE,102,0.0,0.0,46,0.00,,,0.00,106,Wunderground v.1.15,2013-02-09 19:23:00,
2013-02-09 11:33:00,52.9,33.2,29.91,ESE,104,0.0,0.0,47,0.00,,,0.00,588,Wunderground v.1.15,2013-02-09 19:33:00,
2013-02-09 11:42:00,53.5,32.1,29.91,ESE,104,0.0,0.0,44,0.00,,,0.00,83,Wunderground v.1.15,2013-02-09 19:42:00,
2013-02-09 11:52:00,53.3,33.0,29.91,ESE,104,0.0,0.0,46,0.00,,,0.00,63,Wunderground v.1.15,2013-02-09 19:52:00,
2013-02-09 12:02:00,53.2,32.9,29.91,ESE,104,0.0,0.0,46,0.00,,,0.00,72,Wunderground v.1.15,2013-02-09 20:02:00,
2013-02-09 12:12:00,52.9,31.6,29.91,ESE,104,0.0,0.0,44,0.00,,,0.00,63,Wunderground v.1.15,2013-02-09 20:12:00,
2013-02-09 12:22:00,52.9,29.8,29.90,ESE,104,0.0,0.0,41,0.00,,,0.00,63,Wunderground v.1.15,2013-02-09 20:22:00,
2013-02-09 12:32:00,53.1,32.3,29.90,ESE,104,0.0,0.0,45,0.00,,,0.00,63,Wunderground v.1.15,2013-02-09 20:32:00,
2013-02-09 12:42:00,53.2,32.9,29.90,East,86,0.0,0.0,46,0.00,,,0.00,58,Wunderground v.1.15,2013-02-09 20:42:00,
2013-02-09 12:52:00,53.2,35.5,29.90,NNW,340,0.0,0.0,51,0.00,,,0.00,56,Wunderground v.1.15,2013-02-09 20:52:00,
2013-02-09 13:02:00,53.1,34.9,29.89,NNW,347,0.0,0.0,50,0.00,,,0.00,88,Wunderground v.1.15,2013-02-09 21:02:00,
2013-02-09 13:12:00,52.9,35.2,29.89,NE,56,0.0,3.0,51,0.00,,,0.00,67,Wunderground v.1.15,2013-02-09 21:12:00,
2013-02-09 13:22:00,52.8,36.6,29.89,NNE,14,0.0,0.0,54,0.00,,,0.00,55,Wunderground v.1.15,2013-02-09 21:22:00,
2013-02-09 13:27:00,52.8,37.5,29.89,North,357,0.0,0.0,56,0.00,,,0.00,55,Wunderground v.1.15,2013-02-09 21:27:00,
2013-02-09 13:32:00,52.8,38.0,29.89,North,357,0.0,0.0,57,0.00,,,0.00,62,Wunderground v.1.15,2013-02-09 21:32:00,
2013-02-09 13:42:00,52.8,38.4,29.89,NNE,21,0.0,0.0,58,0.00,,,0.00,55,Wunderground v.1.15,2013-02-09 21:42:00,
2013-02-09 13:52:00,52.8,37.5,29.89,NNE,30,0.0,0.0,56,0.00,,,0.00,51,Wunderground v.1.15,2013-02-09 21:52:00,
2013-02-09 14:02:00,52.9,38.1,29.88,NNE,30,0.0,0.0,57,0.00,,,0.00,49,Wunderground v.1.15,2013-02-09 22:02:00,
2013-02-09 14:13:00,52.9,37.6,29.88,NNE,30,0.0,0.0,56,0.00,,,0.00,42,Wunderground v.1.15,2013-02-09 22:13:00,
2013-02-09 14:22:00,52.9,38.1,29.88,NNE,17,0.0,0.0,57,0.00,,,0.00,39,Wunderground v.1.15,2013-02-09 22:22:00,
2013-02-09 14:32:00,52.9,38.1,29.88,NNE,17,0.0,0.0,57,0.00,,,0.00,37,Wunderground v.1.15,2013-02-09 22:32:00,
2013-02-09 14:42:00,52.8,38.4,29.88,North,0,0.0,0.0,58,0.00,,,0.00,35,Wunderground v.1.15,2013-02-09 22:42:00,
2013-02-09 14:52:00,52.8,37.5,29.88,North,0,0.0,0.0,56,0.00,,,0.00,32,Wunderground v.1.15,2013-02-09 22:52:00,
2013-02-09 15:02:00,52.6,38.7,29.88,North,0,0.0,0.0,59,0.00,,,0.00,35,Wunderground v.1.15,2013-02-09 23:02:00,
2013-02-09 15:12:00,52.5,39.0,29.88,West,278,0.0,0.0,60,0.00,,,0.00,25,Wunderground v.1.15,2013-02-09 23:12:00,
2013-02-09 15:22:00,52.2,39.6,29.88,West,278,0.0,0.0,62,0.00,,,0.00,23,Wunderground v.1.15,2013-02-09 23:22:00,
2013-02-09 15:32:00,51.9,39.7,29.89,NW,315,0.0,2.0,63,0.00,,,0.00,16,Wunderground v.1.15,2013-02-09 23:32:00,
2013-02-09 15:42:00,51.6,39.4,29.89,NNW,333,0.0,0.0,63,0.00,,,0.00,12,Wunderground v.1.15,2013-02-09 23:42:00,
2013-02-09 15:52:00,51.3,39.1,29.89,NNW,335,0.0,0.0,63,0.00,,,0.00,5,Wunderground v.1.15,2013-02-09 23:52:00,
2013-02-09 16:03:00,51.0,40.4,29.89,NNW,335,0.0,0.0,67,0.00,,,0.00,0,Wunderground v.1.15,2013-02-10 00:03:00,
2013-02-09 16:12:00,50.4,39.9,29.89,NNW,335,0.0,0.0,67,0.00,,,0.00,0,Wunderground v.1.15,2013-02-10 00:12:00,
2013-02-09 16:22:00,49.9,40.1,29.90,NNW,335,0.0,0.0,69,0.00,,,0.00,0,Wunderground v.1.15,2013-02-10 00:22:00,
2013-02-09 16:32:00,49.4,39.7,29.90,NNW,335,0.0,0.0,69,0.00,,,0.00,0,Wunderground v.1.15,2013-02-10 00:32:00,
2013-02-09 16:42:00,48.9,39.9,29.90,NNW,335,0.0,0.0,71,0.00,,,0.00,0,Wunderground v.1.15,2013-02-10 00:42:00,
2013-02-09 16:52:00,48.5,39.5,29.90,NNW,335,0.0,0.0,71,0.00,,,0.00,0,Wunderground v.1.15,2013-02-10 00:52:00,
2013-02-09 17:02:00,48.2,39.6,29.90,NNW,335,0.0,0.0,72,0.00,,,0.00,0,Wunderground v.1.15,2013-02-10 01:02:00,
2013-02-09 17:12:00,47.9,39.3,29.90,NNW,335,0.0,0.0,72,0.00,,,0.00,0,Wunderground v.1.15,2013-02-10 01:12:00,
2013-02-09 17:22:00,47.6,39.0,29.90,NNW,335,0.0,0.0,72,0.00,,,0.00,0,Wunderground v.1.15,2013-02-10 01:22:00,
2013-02-09 17:32:00,47.3,39.1,29.91,NNW,335,0.0,0.0,73,0.00,,,0.00,0,Wunderground v.1.15,2013-02-10 01:32:00,
2013-02-09 17:43:00,47.0,38.8,29.91,NNW,335,0.0,0.0,73,0.00,,,0.00,0,Wunderground v.1.15,2013-02-10 01:43:00,
2013-02-09 17:52:00,46.7,38.5,29.92,NNW,335,0.0,0.0,73,0.00,,,0.00,0,Wunderground v.1.15,2013-02-10 01:52:00,
2013-02-09 18:02:00,46.2,38.0,29.92,NNW,335,0.0,0.0,73,0.00,,,0.00,0,Wunderground v.1.15,2013-02-10 02:02:00,
2013-02-09 18:12:00,46.0,38.2,29.92,NNW,335,0.0,0.0,74,0.00,,,0.00,0,Wunderground v.1.15,2013-02-10 02:12:00,
2013-02-09 18:22:00,45.7,37.5,29.91,NNW,335,0.0,0.0,73,0.00,,,0.00,0,Wunderground v.1.15,2013-02-10 02:22:00,
2013-02-09 18:32:00,45.2,37.7,29.91,NNW,335,0.0,0.0,75,0.00,,,0.00,0,Wunderground v.1.15,2013-02-10 02:32:00,
2013-02-09 18:42:00,44.8,37.4,29.91,NNW,335,0.0,0.0,75,0.00,,,0.00,0,Wunderground v.1.15,2013-02-10 02:42:00,
2013-02-09 18:52:00,44.3,36.9,29.92,NNW,335,0.0,0.0,75,0.00,,,0.00,0,Wunderground v.1.15,2013-02-10 02:52:00,
2013-02-09 19:02:00,43.9,36.8,29.93,NNW,335,0.0,0.0,76,0.00,,,0.00,0,Wunderground v.1.15,2013-02-10 03:02:00,
2013-02-09 19:12:00,43.3,36.6,29.93,NNW,335,0.0,0.0,77,0.00,,,0.00,0,Wunderground v.1.15,2013-02-10 03:12:00,
2013-02-09 19:22:00,42.8,36.1,29.93,NNW,335,0.0,0.0,77,0.00,,,0.00,0,Wunderground v.1.15,2013-02-10 03:22:00,
2013-02-09 19:33:00,42.3,35.9,29.94,NNW,335,0.0,0.0,78,0.00,,,0.00,0,Wunderground v.1.15,2013-02-10 03:33:00,
2013-02-09 19:42:00,42.1,36.1,29.94,NNW,335,0.0,0.0,79,0.00,,,0.00,0,Wunderground v.1.15,2013-02-10 03:42:00,
2013-02-09 19:52:00,41.8,35.8,29.94,NNW,335,0.0,0.0,79,0.00,,,0.00,0,Wunderground v.1.15,2013-02-10 03:52:00,
2013-02-09 20:02:00,41.3,35.3,29.95,NNW,335,0.0,0.0,79,0.00,,,0.00,0,Wunderground v.1.15,2013-02-10 04:02:00,
2013-02-09 20:13:00,40.9,35.2,29.95,NNW,335,0.0,0.0,80,0.00,,,0.00,0,Wunderground v.1.15,2013-02-10 04:13:00,
2013-02-09 20:22:00,40.6,34.9,29.95,NNW,335,0.0,0.0,80,0.00,,,0.00,0,Wunderground v.1.15,2013-02-10 04:22:00,
2013-02-09 20:32:00,40.3,34.6,29.95,NNW,335,0.0,0.0,80,0.00,,,0.00,0,Wunderground v.1.15,2013-02-10 04:32:00,
2013-02-09 20:37:00,40.2,34.5,29.95,NNW,335,0.0,0.0,80,0.00,,,0.00,0,Wunderground v.1.15,2013-02-10 04:37:00,
2013-02-09 20:42:00,40.1,34.4,29.95,NNW,335,0.0,0.0,80,0.00,,,0.00,0,Wunderground v.1.15,2013-02-10 04:42:00,
2013-02-09 20:52:00,39.8,34.1,29.96,NNW,335,0.0,0.0,80,0.00,,,0.00,0,Wunderground v.1.15,2013-02-10 04:52:00,
2013-02-09 21:02:00,39.6,33.0,29.96,NNW,335,0.0,0.0,77,0.00,,,0.00,0,Wunderground v.1.15,2013-02-10 05:02:00,
2013-02-09 21:07:00,39.5,33.2,29.96,NNW,335,0.0,0.0,78,0.00,,,0.00,0,Wunderground v.1.15,2013-02-10 05:07:00,
2013-02-09 21:12:00,39.5,33.5,29.96,NNW,335,0.0,0.0,79,0.00,,,0.00,0,Wunderground v.1.15,2013-02-10 05:12:00,
2013-02-09 21:22:00,39.3,33.3,29.96,NNW,335,0.0,0.0,79,0.00,,,0.00,0,Wunderground v.1.15,2013-02-10 05:22:00,
2013-02-09 21:27:00,39.2,32.9,29.96,NNW,335,0.0,0.0,78,0.00,,,0.00,0,Wunderground v.1.15,2013-02-10 05:27:00,
2013-02-09 21:32:00,39.1,33.1,29.97,NNW,335,0.0,0.0,79,0.00,,,0.00,0,Wunderground v.1.15,2013-02-10 05:32:00,
2013-02-09 21:42:00,38.9,33.3,29.97,NNW,335,0.0,0.0,80,0.00,,,0.00,0,Wunderground v.1.15,2013-02-10 05:42:00,
2013-02-09 21:53:00,38.8,32.8,29.97,NNW,335,0.0,0.0,79,0.00,,,0.00,0,Wunderground v.1.15,2013-02-10 05:53:00,
2013-02-09 22:02:00,38.5,32.6,29.97,NNW,335,0.0,0.0,79,0.00,,,0.00,0,Wunderground v.1.15,2013-02-10 06:02:00,
2013-02-09 22:12:00,38.3,32.7,29.97,NNW,335,0.0,0.0,80,0.00,,,0.00,0,Wunderground v.1.15,2013-02-10 06:12:00,
2013-02-09 22:23:00,38.2,32.6,29.96,NNW,335,0.0,0.0,80,0.00,,,0.00,0,Wunderground v.1.15,2013-02-10 06:23:00,
2013-02-09 22:32:00,37.9,32.6,29.96,NNW,335,0.0,0.0,81,0.00,,,0.00,0,Wunderground v.1.15,2013-02-10 06:32:00,
2013-02-09 22:42:00,37.5,32.5,29.96,NNW,335,0.0,0.0,82,0.00,,,0.00,0,Wunderground v.1.15,2013-02-10 06:42:00,
2013-02-09 22:52:00,37.3,32.3,29.96,NNW,335,0.0,0.0,82,0.00,,,0.00,0,Wunderground v.1.15,2013-02-10 06:52:00,
2013-02-09 23:02:00,37.2,32.2,29.96,NNW,335,0.0,0.0,82,0.00,,,0.00,0,Wunderground v.1.15,2013-02-10 07:02:00,
2013-02-09 23:12:00,37.0,32.0,29.96,NNW,335,0.0,0.0,82,0.00,,,0.00,0,Wunderground v.1.15,2013-02-10 07:12:00,
2013-02-09 23:22:00,37.0,32.0,29.95,NNW,335,0.0,0.0,82,0.00,,,0.00,0,Wunderground v.1.15,2013-02-10 07:22:00,
2013-02-09 23:32:00,36.9,31.9,29.95,NNW,335,0.0,0.0,82,0.00,,,0.00,0,Wunderground v.1.15,2013-02-10 07:32:00,
2013-02-09 23:43:00,36.8,31.8,29.95,NNW,335,0.0,0.0,82,0.00,,,0.00,0,Wunderground v.1.15,2013-02-10 07:43:00,
2013-02-09 23:53:00,36.6,31.6,29.95,NNW,335,0.0,0.0,82,0.00,,,0.00,0,Wunderground v.1.15,2013-02-10 07:53:00,